| time (UTC) | temp C | wind direction | speed KPH | gust KPH | rain 1hr cm | rain 24hr cm | rain mn cm | humidity % | barometer mb |
| 20260505200013 | 27 | 162 | 0.0 | 8.0 | 0.00 | 0.00 | 0.00 | 62 | 1014.1 |
| 20260505194512 | 27 | 132 | 0.0 | 9.7 | 0.00 | 0.00 | 0.00 | 62 | 1014.2 |
| 20260505193033 | 27 | 148 | 1.6 | 9.7 | 0.00 | 0.00 | 0.00 | 62 | 1014.4 |
| 20260505191511 | 26 | 142 | 3.2 | 14.5 | 0.00 | 0.00 | 0.00 | 62 | 1014.4 |
| 20260505190024 | 25 | 132 | 3.2 | 11.3 | 0.00 | 0.00 | 0.00 | 61 | 1014.6 |
| 20260505184510 | 26 | 134 | 1.6 | 12.9 | 0.00 | 0.00 | 0.00 | 61 | 1014.6 |
| 20260505183016 | 26 | 162 | 1.6 | 11.3 | 0.00 | 0.00 | 0.00 | 62 | 1014.6 |
| 20260505181513 | 27 | 139 | 1.6 | 9.7 | 0.00 | 0.00 | 0.00 | 61 | 1014.8 |
| 20260505180007 | 27 | 149 | 1.6 | 9.7 | 0.00 | 0.00 | 0.00 | 61 | 1014.9 |
| 20260505174506 | 27 | 188 | 0.0 | 11.3 | 0.00 | 0.00 | 0.00 | 61 | 1015.0 |
| 20260505173004 | 27 | 175 | 1.6 | 9.7 | 0.00 | 0.00 | 0.00 | 61 | 1014.8 |
| 20260505171506 | 26 | 212 | 0.0 | 9.7 | 0.00 | 0.00 | 0.00 | 61 | 1014.9 |
| 20260505170002 | 26 | 165 | 0.0 | 9.7 | 0.00 | 0.00 | 0.00 | 61 | 1014.8 |
| 20260505164501 | 26 | 203 | 1.6 | 11.3 | 0.00 | 0.00 | 0.00 | 61 | 1014.9 |
| 20260505163109 | 26 | 273 | 1.6 | 9.7 | 0.00 | 0.00 | 0.00 | 61 | 1015.0 |
| 20260505161558 | 26 | 202 | 0.0 | 9.7 | 0.00 | 0.00 | 0.00 | 61 | 1015.1 |
| 20260505153107 | 26 | 126 | 1.6 | 11.3 | 0.00 | 0.00 | 0.00 | 61 | 1015.2 |
| 20260505151552 | 26 | 126 | 1.6 | 9.7 | 0.00 | 0.00 | 0.00 | 60 | 1015.1 |
| 20260505150108 | 26 | 85 | 0.0 | 12.9 | 0.00 | 0.00 | 0.00 | 60 | 1015.1 |
| 20260505124531 | 23 | 212 | 0.0 | 4.8 | 0.00 | 0.00 | 0.00 | 61 | 1014.4 |
| 20260505123044 | 22 | 163 | 0.0 | 4.8 | 0.00 | 0.00 | 0.00 | 63 | 1014.3 |
| 20260505121526 | 21 | 181 | 0.0 | 1.6 | 0.00 | 0.00 | 0.00 | 59 | 1014.2 |
| 20260505120031 | -17 | 0.0 | 0.0 | 0.00 | 0.00 | 0.00 | 1014.2 | ||
| 20260505114514 | -17 | 0.0 | 0.0 | 0.00 | 0.00 | 0.00 | 1014.0 | ||
| 20260505113010 | -17 | 0.0 | 0.0 | 0.00 | 0.00 | 0.00 | 1013.7 | ||
| 20260505111514 | -17 | 0.0 | 0.0 | 0.00 | 0.00 | 0.00 | 1013.7 | ||
| 20260505101548 | -17 | 0.0 | 0.0 | 0.00 | 0.00 | 0.00 | 1013.5 | ||
| 20260505100044 | 20 | 220 | 1.6 | 9.7 | 0.00 | 0.00 | 0.00 | 63 | 1013.5 |
| 20260505094546 | 20 | 226 | 0.0 | 6.4 | 0.00 | 0.00 | 0.00 | 63 | 1013.5 |
| 20260505093047 | 20 | 225 | 3.2 | 9.7 | 0.00 | 0.00 | 0.00 | 63 | 1013.3 |
| 20260505091547 | 20 | 252 | 3.2 | 14.5 | 0.00 | 0.00 | 0.00 | 63 | 1013.2 |
| 20260505090050 | 20 | 219 | 3.2 | 9.7 | 0.00 | 0.00 | 0.00 | 63 | 1013.2 |
| 20260505084539 | 20 | 167 | 1.6 | 11.3 | 0.00 | 0.00 | 0.00 | 63 | 1013.1 |
| 20260505083037 | 20 | 261 | 3.2 | 11.3 | 0.00 | 0.00 | 0.00 | 62 | 1012.9 |
| 20260505081544 | 20 | 252 | 3.2 | 9.7 | 0.00 | 0.00 | 0.00 | 62 | 1013.0 |
| 20260505080048 | 20 | 248 | 0.0 | 11.3 | 0.00 | 0.00 | 0.00 | 61 | 1013.0 |
| 20260505074534 | 20 | 206 | 3.2 | 9.7 | 0.00 | 0.00 | 0.00 | 62 | 1013.2 |
| 20260505073045 | 20 | 200 | 3.2 | 9.7 | 0.00 | 0.00 | 0.00 | 62 | 1013.0 |
| 20260505071533 | 20 | 265 | 0.0 | 12.9 | 0.00 | 0.00 | 0.00 | 62 | 1013.2 |
| 20260505070030 | 20 | 219 | 0.0 | 9.7 | 0.00 | 0.00 | 0.00 | 63 | 1013.4 |
| 20260505064527 | 20 | 174 | 1.6 | 11.3 | 0.00 | 0.00 | 0.00 | 63 | 1013.6 |
| 20260505063024 | 20 | 288 | 1.6 | 9.7 | 0.00 | 0.00 | 0.00 | 63 | 1013.9 |
| 20260505061523 | 20 | 240 | 1.6 | 9.7 | 0.00 | 0.00 | 0.00 | 63 | 1014.1 |
| 20260505060025 | 20 | 241 | 0.0 | 9.7 | 0.00 | 0.00 | 0.00 | 63 | 1014.2 |
| 20260505054522 | 20 | 218 | 1.6 | 8.0 | 0.00 | 0.00 | 0.00 | 63 | 1014.4 |
| 20260505053020 | 20 | 229 | 1.6 | 11.3 | 0.00 | 0.00 | 0.00 | 63 | 1014.5 |
| 20260505051521 | 20 | 227 | 4.8 | 16.1 | 0.00 | 0.00 | 0.00 | 63 | 1014.6 |
| 20260505041611 | 20 | 226 | 0.0 | 11.3 | 0.00 | 0.00 | 0.00 | 63 | 1014.7 |
| 20260505040100 | 20 | 239 | 4.8 | 11.3 | 0.00 | 0.00 | 0.00 | 63 | 1014.8 |
| 20260505034551 | 20 | 266 | 0.0 | 8.0 | 0.00 | 0.00 | 0.00 | 63 | 1014.7 |
| 20260505033048 | 20 | 208 | 0.0 | 11.3 | 0.00 | 0.00 | 0.00 | 63 | 1014.6 |
| 20260505031547 | 20 | 274 | 0.0 | 9.7 | 0.00 | 0.00 | 0.00 | 63 | 1014.8 |
| 20260505030041 | 20 | 218 | 3.2 | 11.3 | 0.00 | 0.00 | 0.00 | 63 | 1014.6 |
| 20260505024533 | 20 | 191 | 3.2 | 11.3 | 0.00 | 0.00 | 0.00 | 62 | 1014.7 |
| 20260505023036 | 20 | 250 | 3.2 | 11.3 | 0.00 | 0.00 | 0.00 | 63 | 1014.5 |
| 20260505021527 | 20 | 166 | 1.6 | 8.0 | 0.00 | 0.00 | 0.00 | 63 | 1014.4 |
| 20260505020021 | 20 | 225 | 3.2 | 8.0 | 0.00 | 0.00 | 0.00 | 62 | 1014.5 |
| 20260505014516 | 20 | 202 | 1.6 | 11.3 | 0.00 | 0.00 | 0.00 | 62 | 1014.7 |
| 20260505013010 | 20 | 220 | 1.6 | 8.0 | 0.00 | 0.00 | 0.00 | 62 | 1014.8 |
| 20260505011508 | 21 | 269 | 0.0 | 9.7 | 0.00 | 0.00 | 0.00 | 61 | 1015.0 |
| 20260505010100 | 21 | 257 | 0.0 | 8.0 | 0.00 | 0.00 | 0.00 | 62 | 1014.9 |
| 20260505004557 | 21 | 268 | 0.0 | 9.7 | 0.00 | 0.00 | 0.00 | 61 | 1015.0 |
| 20260505003051 | 21 | 221 | 1.6 | 9.7 | 0.00 | 0.00 | 0.00 | 60 | 1014.8 |
| 20260505001601 | 22 | 261 | 1.6 | 8.0 | 0.00 | 0.00 | 0.00 | 58 | 1014.9 |
| 20260505000054 | 23 | 192 | 1.6 | 9.7 | 0.00 | 0.00 | 0.00 | 56 | 1015.0 |
| 20260504234550 | 23 | 216 | 0.0 | 11.3 | 0.00 | 0.00 | 0.00 | 56 | 1015.1 |
| 20260504233033 | 24 | 228 | 1.6 | 9.7 | 0.00 | 0.00 | 0.00 | 53 | 1015.1 |
| 20260504231528 | 24 | 180 | 0.0 | 8.0 | 0.00 | 0.00 | 0.00 | 54 | 1014.9 |
| 20260504230023 | 25 | 165 | 1.6 | 9.7 | 0.00 | 0.00 | 0.00 | 52 | 1014.9 |
| 20260504224519 | 25 | 166 | 0.0 | 9.7 | 0.00 | 0.00 | 0.00 | 51 | 1015.2 |
| 20260504223014 | 25 | 167 | 0.0 | 8.0 | 0.00 | 0.00 | 0.00 | 50 | 1015.1 |
| 20260504221516 | 25 | 203 | 1.6 | 9.7 | 0.00 | 0.00 | 0.00 | 49 | 1015.0 |
| 20260504220005 | 25 | 167 | 0.0 | 11.3 | 0.00 | 0.00 | 0.00 | 47 | 1015.1 |
| 20260504214501 | 25 | 219 | 0.0 | 9.7 | 0.00 | 0.00 | 0.00 | 47 | 1015.2 |
| 20260504213125 | 26 | 131 | 1.6 | 12.9 | 0.00 | 0.00 | 0.00 | 46 | 1015.1 |
| 20260504211555 | 26 | 181 | 0.0 | 8.0 | 0.00 | 0.00 | 0.00 | 44 | 1015.3 |
| 20260504210052 | 26 | 217 | 0.0 | 9.7 | 0.00 | 0.00 | 0.00 | 43 | 1015.4 |
| 20260504204551 | 26 | 202 | 1.6 | 8.0 | 0.00 | 0.00 | 0.00 | 44 | 1015.4 |
| 20260504203047 | 25 | 153 | 1.6 | 12.9 | 0.00 | 0.00 | 0.00 | 47 | 1015.6 |
| 20260504201537 | 25 | 124 | 0.0 | 8.0 | 0.00 | 0.00 | 0.00 | 44 | 1015.6 |